Temp
15 15 15 15 15 15 15 15 15 15 15 15 15 14 14 14 14 14 14 13 13 13 13 13 13 13 13 13 13 13 13 14 14 14 15 15 16 16 16 16 16 16
15 15 15 15 15 15 15 15 15 14 14 14 14 14 14 14 14 13 13 13 13 13 12 12 12 12 12 12 12 13 13 13 13 14 14 15 15 16 16 16 16 16
15 15 15 15 15 15 15 14 14 14 14 14 14 13 13 13 13 13 13 12 12 12 12 12 12 12 12 12 12 12 12 13 13 13 14 14 15 15 16 16 16 16
15 15 15 15 15 15 14 14 14 13 13 13 13 13 13 13 13 12 12 12 12 12 12 12 12 12 12 12 12 12 12 12 13 13 14 14 15 15 15 16 16 16
14 14 14 14 14 14 14 14 13 13 13 13 13 13 13 12 12 12 12 12 12 12 12 12 12 12 12 12 12 12 12 12 12 13 13 14 14 15 15 16 16 16
14 14 14 14 14 14 13 13 13 13 13 13 13 12 12 12 12 12 12 12 12 12 12 12 12 12 12 12 12 12 12 12 12 12 13 13 14 14 15 16 16 16
14 14 14 14 14 13 13 13 13 13 13 13 12 12 12 12 12 12 12 12 12 12 12 12 12 12 12 12 12 12 12 12 12 12 12 13 14 14 14 15 16 16
14 14 14 14 13 13 13 13 13 13 12 12 12 12 12 12 12 12 12 12 12 11 12 11 11 11 12 12 12 12 12 12 12 12 12 12 13 13 14 14 15 16
14 14 14 13 13 13 13 13 12 12 12 12 12 12 12 12 12 12 12 12 12 11 11 11 11 11 11 11 12 12 12 12 12 12 12 12 12 12 13 13 14 15
14 14 14 13 13 13 13 12 12 12 12 12 12 12 12 12 12 12 12 12 11 11 11 11 11 11 11 11 11 11 12 12 12 12 12 12 13 12 12 13 13 14
14 14 14 13 13 13 13 12 12 12 12 12 12 12 12 12 12 11 11 11 11 11 11 11 11 11 11 11 11 11 11 12 12 12 12 12 12 13 13 13 13 13
14 14 13 13 13 13 12 12 12 12 12 12 12 12 12 12 11 11 11 11 11 11 11 11 11 10 10 10 11 11 11 11 12 12 12 12 12 12 12 13 13 13
14 14 13 13 13 13 12 12 12 12 12 12 12 12 12 11 11 11 11 11 11 11 11 11 10 10 10 10 10 10 11 11 11 11 12 12 12 12 12 13 13 13
14 13 13 13 13 13 12 12 12 12 12 12 12 11 11 11 11 11 11 11 11 11 11 10 10 10 10 10 10 10 10 10 11 11 11 11 12 12 12 12 13 13
14 14 13 13 13 13 12 12 12 12 12 12 11 11 11 11 11 11 11 11 10 10 10 10 10 10 10 10 10 10 10 10 10 10 10 11 11 11 12 12 12 12
14 14 13 13 13 12 12 12 12 12 12 11 11 11 11 11 10 10 10 10 10 9 9 10 10 10 10 10 10 9 9 9 9 9 9 9 9 10 10 11 11 12
14 14 13 13 13 12 12 12 12 12 11 11 11 11 11 10 10 10 9 9 8 8 8 8 9 9 9 9 9 9 9 9 8 8 8 8 8 9 9 9 10 10
14 14 13 13 13 13 12 12 12 12 11 11 11 11 10 10 10 9 8 8 7 7 7 7 8 8 8 8 8 8 8 8 8 8 8 8 8 8 8 8 9 9
14 14 13 13 13 13 13 12 12 11 11 11 11 10 10 10 9 8 7 7 7 7 6 6 7 7 7 7 7 7 7 7 7 7 7 7 7 7 8 8 8 8
14 14 14 13 13 13 12 12 12 11 11 11 10 10 10 9 8 7 7 7 6 6 6 6 6 6 6 6 6 6 6 6 6 6 6 6 6 7 7 7 7 8
14 14 13 13 13 13 12 12 11 11 11 10 10 10 9 8 7 7 7 6 6 6 6 6 6 6 6 6 6 6 6 6 6 5 5 5 5 6 6 6 7 7
14 14 13 13 13 12 12 12 11 11 11 10 10 10 8 7 7 7 6 6 6 6 6 6 6 6 6 6 5 5 5 5 5 5 5 5 5 5 5 6 6 6
13 13 13 13 13 12 12 11 11 11 11 10 10 9 8 7 7 6 6 6 6 6 6 6 6 5 5 5 5 5 5 4 4 4 4 4 5 5 5 5 5 5
13 13 13 13 12 12 12 11 11 10 10 10 9 8 7 6 6 6 6 6 5 5 5 5 5 5 5 5 5 5 4 4 4 4 4 4 4 4 4 5 5 5
13 13 12 12 12 11 11 11 10 10 10 9 9 7 7 6 6 6 6 5 5 5 5 4 4 5 4 4 4 4 4 4 4 4 4 4 4 4 4 4 4 4
13 12 12 11 11 11 10 10 10 10 9 9 8 7 6 6 6 5 5 5 4 4 4 4 4 4 4 4 4 4 4 3 3 3 3 3 3 4 4 4 4 4
Height
794 795 796 797 797 798 799 800 800 801 801 801 802 802 802 803 803 803 803 802 802 802 802 801 801 800 800 799 799 799 798 798 797 797 796 796 796 795 795 795 795 795
793 794 795 795 796 797 798 798 799 799 800 800 800 801 801 801 801 801 801 801 800 800 800 799 799 798 798 797 797 797 796 795 795 794 794 793 793 792 792 792 792 792
791 792 793 794 795 796 797 797 798 798 798 799 799 799 799 800 800 800 799 799 799 798 798 797 797 796 796 796 795 795 794 794 793 792 792 791 790 790 789 790 790 789
790 791 792 793 794 795 796 796 796 797 797 797 798 798 798 798 798 798 798 797 797 796 796 795 795 794 794 794 793 793 792 792 791 790 790 789 788 787 787 787 787 787
789 790 791 792 793 794 794 795 795 795 796 796 796 797 797 797 797 796 796 796 795 795 794 794 793 793 792 792 791 791 790 789 789 789 788 786 786 785 785 784 784 784
787 788 789 791 791 792 793 793 794 794 795 795 795 795 795 795 795 794 794 794 794 793 792 792 791 791 790 790 789 789 788 787 787 787 786 785 784 783 783 782 781 781
785 786 788 789 790 791 791 792 793 793 794 794 794 794 794 794 793 793 793 792 792 792 791 790 790 789 789 788 788 787 786 786 785 785 784 783 782 781 781 780 779 778
783 785 786 788 789 790 790 791 792 792 793 793 793 793 793 792 792 792 791 791 790 790 789 789 788 787 787 786 786 785 784 784 783 783 782 781 780 779 779 778 777 776
782 783 785 786 787 788 789 790 790 791 791 791 791 791 791 791 791 790 790 789 788 788 787 787 786 786 785 785 784 783 782 782 781 780 780 779 778 778 777 777 775 773
780 782 783 784 785 787 787 788 789 789 790 790 790 790 790 790 789 789 788 788 787 786 785 785 784 784 784 783 782 782 780 779 779 778 778 777 776 776 775 775 774 772
778 780 781 783 784 785 786 787 788 788 788 788 788 788 788 788 788 787 787 786 785 784 784 783 782 782 782 781 780 780 779 777 777 776 775 775 774 773 773 772 772 770
776 778 780 781 782 784 785 785 786 786 787 787 787 787 786 786 786 785 785 784 783 782 782 781 780 780 780 779 778 778 777 775 774 773 773 772 771 771 770 770 769 768
774 776 778 780 781 782 783 784 785 785 785 785 785 785 785 784 784 783 783 782 781 780 780 779 778 778 778 777 776 775 775 774 772 771 770 769 769 768 767 767 766 766
773 775 776 778 779 780 782 782 783 783 783 783 783 783 783 782 782 781 780 780 779 778 777 777 776 776 775 775 774 773 773 772 770 770 768 767 766 765 764 763 763 762
771 773 775 777 778 779 780 781 781 781 781 781 781 781 781 780 780 779 778 777 777 776 775 774 774 773 773 773 772 771 771 770 768 768 766 765 764 763 762 760 759 759
770 772 773 775 776 777 778 779 779 779 779 779 779 779 779 778 778 777 776 776 775 774 773 772 771 771 770 770 770 769 769 768 766 765 764 763 762 760 759 758 757 756
769 771 772 774 775 776 776 777 777 777 777 777 777 777 777 776 776 775 775 774 774 773 772 771 770 769 769 768 768 768 767 766 764 763 762 761 760 759 757 756 754 753
768 769 771 772 773 774 774 775 775 775 775 775 775 775 775 774 774 773 773 773 773 772 771 770 768 768 767 766 766 765 765 763 762 760 759 758 757 756 755 754 752 751
766 768 770 771 772 772 773 773 773 773 773 774 773 773 773 772 772 772 772 772 771 770 769 768 767 766 765 764 763 762 761 760 758 757 756 754 753 753 752 751 750 749
765 767 768 770 770 771 771 771 772 772 772 772 772 771 770 770 770 770 770 770 770 768 767 765 764 763 762 761 760 759 758 757 755 754 752 750 749 749 748 747 746 746
764 766 767 768 769 769 769 770 770 770 770 770 770 770 768 768 768 768 768 768 767 766 764 762 761 760 759 758 757 756 755 754 752 750 748 746 745 744 744 743 742 742
764 765 766 767 767 768 768 768 769 769 769 769 768 767 766 766 767 766 766 765 764 763 761 759 757 757 756 755 754 753 752 750 748 746 744 741 740 739 739 738 737 737
763 764 765 765 766 766 766 767 767 767 767 767 766 765 765 766 766 765 764 763 761 760 758 756 754 753 753 751 750 749 748 745 744 742 740 737 735 735 734 733 732 731
762 763 763 764 764 765 765 765 766 766 765 765 764 763 763 764 764 763 762 760 759 757 756 753 751 750 749 748 746 746 744 742 739 737 735 733 731 730 729 728 727 726
761 762 762 763 763 764 764 764 765 765 764 763 763 762 762 762 761 760 759 758 757 755 753 751 748 746 746 744 742 742 740 738 736 733 729 728 726 725 723 722 721 720
760 761 761 762 763 763 763 764 764 764 763 762 761 761 761 760 759 758 757 755 754 752 750 748 746 743 742 741 739 738 736 734 732 728 724 722 721 719 717 716 715 714
Wind_Speed
16 15 14 13 12 10 9 9 8 7 7 7 8 8 9 9 9 10 11 12 13 15 16 16 17 17 18 19 18 19 20 21 21 20 20 21 22 22 21 21 22 24
17 16 15 13 13 11 11 11 10 9 9 9 9 9 10 10 11 12 13 14 15 16 16 16 17 17 17 18 18 18 19 20 21 21 21 22 23 23 22 21 21 22
18 17 16 15 14 12 12 11 11 11 10 10 10 11 11 11 12 12 13 14 16 17 17 17 17 17 18 18 18 19 19 19 21 22 22 22 22 23 23 22 22 22
19 18 17 16 14 13 12 12 12 11 11 11 11 11 11 11 12 13 14 15 16 17 17 18 18 18 18 18 18 19 19 20 20 20 22 23 22 23 23 23 23 22
19 18 17 16 15 14 13 13 13 12 11 11 11 11 12 12 13 15 16 16 16 17 17 18 18 18 18 18 19 19 19 20 20 20 21 22 22 23 23 23 23 23
19 18 17 16 16 15 14 14 13 12 12 12 12 13 13 14 15 15 16 16 16 17 17 18 19 19 19 19 19 20 20 20 20 20 21 21 22 23 23 23 23 23
19 19 17 16 15 15 15 14 13 12 12 12 13 13 14 15 16 16 16 17 17 17 18 18 19 19 19 19 19 20 20 21 20 21 22 22 21 22 23 24 24 24
19 18 18 16 16 15 15 14 13 12 13 13 14 14 15 15 16 16 17 17 18 18 19 19 19 20 20 19 20 21 21 22 21 21 22 22 22 22 22 23 25 25
18 18 17 16 16 15 14 14 13 13 13 13 14 15 15 16 16 17 17 18 18 19 19 20 19 19 20 20 21 22 22 23 22 22 23 23 23 23 23 24 25 26
19 18 17 16 16 15 14 13 13 13 13 14 15 15 15 16 16 17 18 18 20 20 20 20 20 20 21 21 21 23 24 24 24 24 24 24 24 24 24 25 26 27
19 18 17 16 15 14 13 13 13 13 13 14 15 15 16 17 17 17 18 19 20 20 20 20 20 21 21 22 22 23 24 25 25 25 25 25 26 25 25 25 26 28
18 18 16 15 15 14 13 13 13 13 14 14 15 15 16 17 17 17 18 19 20 20 21 21 21 22 23 23 23 23 24 26 26 26 26 26 27 27 27 27 27 28
18 17 16 14 14 13 13 13 12 13 13 14 14 15 16 16 17 18 19 20 20 21 22 22 22 23 24 24 24 24 25 26 26 27 27 27 27 28 28 29 29 28
17 16 15 14 13 12 12 12 12 13 13 14 14 14 15 17 17 19 20 20 21 22 23 23 23 24 24 24 24 24 24 25 25 26 27 27 28 29 29 29 29 30
15 15 14 13 12 11 11 12 13 13 13 13 14 15 15 17 18 19 20 20 22 23 23 24 24 24 23 24 24 24 24 25 25 25 26 26 27 28 29 29 29 30
13 13 12 11 11 11 12 12 13 13 13 13 14 15 16 17 17 18 18 20 21 23 24 25 25 24 24 24 26 27 27 28 29 30 30 29 29 28 28 28 29 29
13 12 11 11 11 12 12 12 12 13 13 14 14 15 16 16 16 16 17 19 21 23 24 25 26 26 26 27 28 29 30 31 32 32 32 31 31 30 30 29 30 30
13 11 11 11 11 12 12 12 13 13 13 14 15 15 15 16 16 16 17 19 21 23 24 26 27 26 27 28 29 30 31 32 33 33 32 32 31 31 31 31 31 31
11 11 10 10 10 11 11 12 12 12 13 14 15 15 15 15 15 16 18 20 22 24 25 26 27 27 28 29 30 32 31 32 33 33 32 32 32 32 32 33 33 33
10 9 8 9 10 11 12 12 12 13 14 14 15 15 15 14 15 16 19 21 23 25 26 27 27 28 29 30 31 33 34 35 36 35 33 32 33 33 34 34 35 34
7 7 7 8 10 11 11 12 12 14 15 14 15 16 13 12 15 17 19 21 24 26 27 28 28 28 30 31 33 34 35 36 38 37 36 35 34 34 34 35 36 36
5 6 7 9 10 11 11 11 12 14 14 14 15 15 13 14 16 18 19 22 25 27 28 29 29 29 30 31 32 33 34 35 36 35 36 36 35 34 34 35 36 38
5 6 8 10 10 10 11 11 12 13 14 14 15 14 13 15 17 19 20 23 26 27 28 29 29 28 29 31 32 33 34 35 35 34 35 35 36 35 35 35 36 37
4 6 8 9 9 9 10 10 12 13 15 16 15 13 13 15 18 20 22 24 26 27 28 29 30 30 30 32 33 34 35 36 36 36 35 35 35 35 35 36 36 36
4 6 6 7 8 8 9 10 12 14 16 16 14 12 13 16 19 21 23 25 27 28 29 30 31 31 30 30 32 32 33 34 36 36 36 35 35 35 35 36 36 36
4 5 4 5 7 8 9 11 13 14 14 13 12 13 15 17 19 22 24 26 27 28 28 29 29 29 29 29 31 33 35 35 35 35 35 35 35 34 34 34 35 35
Wind_Direction
196 197 198 200 202 207 212 213 218 226 231 239 248 256 263 266 267 267 267 268 271 272 273 273 273 274 273 272 273 272 270 269 270 272 270 268 267 267 268 266 258 250
200 199 198 201 203 207 212 213 216 223 229 239 246 252 259 263 266 268 270 272 275 277 277 276 276 277 277 275 274 273 273 271 270 271 271 269 267 266 267 266 264 259
202 201 200 202 203 207 211 212 217 225 232 240 246 253 259 263 268 270 271 275 276 277 277 277 277 277 278 277 276 275 274 274 273 271 270 270 268 267 266 264 263 260
204 204 203 203 204 208 211 213 221 230 240 246 251 256 260 263 268 271 275 277 278 279 279 277 277 277 277 276 276 277 275 273 274 273 272 271 270 268 266 264 262 259
204 204 204 205 205 209 212 216 225 233 240 247 252 257 261 266 269 273 276 278 278 280 281 279 278 277 277 276 275 274 274 275 275 275 275 273 271 270 269 265 262 260
204 204 205 206 207 210 214 220 228 233 240 246 253 259 263 268 272 273 274 277 280 281 281 280 279 278 276 276 275 273 272 273 274 274 275 273 270 269 270 267 262 261
203 204 205 207 209 213 217 223 230 235 241 248 253 259 264 267 270 272 274 277 280 282 282 280 280 280 279 276 275 274 273 273 273 272 273 273 272 270 269 269 265 261
203 205 206 209 211 214 219 224 230 237 242 249 254 258 262 266 268 271 274 277 279 280 281 280 279 279 280 278 276 274 272 272 272 271 271 272 274 273 272 272 271 266
202 204 206 209 211 215 221 226 231 239 244 249 255 259 262 265 269 273 275 276 278 280 280 280 280 279 279 279 279 277 275 272 271 270 269 269 269 270 271 272 274 273
201 204 206 209 213 217 223 229 234 241 246 250 255 261 264 266 269 273 276 276 277 278 278 278 280 280 280 279 277 277 277 275 273 270 268 268 267 266 266 267 270 273
200 204 208 210 215 220 225 232 237 243 249 253 257 261 265 268 272 273 274 276 276 276 278 279 281 282 282 281 278 276 276 275 274 271 269 269 268 267 266 265 265 268
200 204 210 212 217 222 228 235 241 246 250 254 259 264 267 269 273 274 275 276 277 277 278 278 280 281 280 280 279 279 279 278 276 274 271 268 266 265 266 266 266 265
200 204 209 214 219 224 230 237 243 248 252 257 261 265 269 273 276 278 279 279 280 280 280 281 281 280 280 279 279 278 278 278 279 279 278 275 271 267 263 262 263 264
200 204 209 215 220 225 232 240 247 253 256 260 265 267 271 277 279 280 281 281 281 281 281 280 278 277 277 279 279 278 277 277 277 277 278 277 276 275 271 266 264 262
197 203 208 213 220 227 237 245 251 256 259 263 269 272 275 279 281 283 286 288 289 288 286 283 281 277 276 277 278 278 277 279 279 280 281 281 279 278 276 274 270 266
197 203 207 213 224 233 242 250 254 257 263 268 272 275 278 281 283 287 293 297 298 297 294 292 290 286 284 282 281 280 281 282 283 283 285 287 286 284 282 279 276 274
200 204 210 217 230 239 245 251 256 261 267 272 276 278 281 284 288 294 299 301 301 299 296 294 291 288 287 285 283 283 283 284 284 283 282 282 282 282 282 282 280 278
198 203 215 224 234 244 249 255 260 265 271 276 279 283 287 291 296 302 304 303 301 298 295 292 291 289 286 286 285 286 287 287 286 284 281 278 276 275 275 276 278 279
198 206 220 232 241 249 256 259 262 268 275 279 282 285 289 295 301 305 305 304 300 297 293 291 289 289 287 287 287 288 290 291 290 287 282 277 273 271 270 269 271 273
200 212 225 241 252 257 260 261 265 272 278 281 283 284 290 299 306 307 304 301 298 294 292 289 287 287 287 287 287 288 288 290 291 289 284 279 275 271 268 267 265 266
203 224 237 248 257 261 263 265 270 275 279 280 283 289 298 306 306 303 298 296 295 293 291 289 287 287 286 286 287 287 287 287 288 287 283 280 276 272 268 266 264 264
214 236 249 257 262 265 268 270 276 282 284 285 288 298 309 309 305 301 298 295 294 292 291 289 288 287 287 287 288 288 289 288 285 284 282 278 275 272 270 266 264 263
229 245 257 263 266 270 273 279 287 292 294 295 301 309 314 310 306 302 299 296 293 292 291 290 291 291 290 290 290 290 291 290 287 284 281 277 275 273 271 269 267 264
238 255 267 276 280 284 288 294 298 300 302 305 309 313 312 309 307 303 299 297 294 294 295 294 293 293 293 292 291 291 290 287 285 283 280 277 275 273 270 269 267 265
263 270 278 290 295 298 304 308 307 307 307 308 313 316 311 306 305 303 301 299 297 297 296 295 293 292 292 292 292 293 292 287 283 279 275 274 273 271 270 268 265 264
267 276 296 308 308 312 313 309 307 307 309 315 323 322 316 311 308 304 301 300 299 298 296 296 295 295 296 296 296 296 295 292 286 278 272 270 269 267 266 264 262 261